カタログに戻る

COSMOS 2251 DEB

運用中LEO
NORAD 34963·DEBRIS·🇷🇺 Russia

打ち上げ Jun 16, 1993 から Plesetsk Cosmodrome

Loading…

次のパス (今後24時間)

TLE

経年Source: Space-Track

元期: Sep 11, 2026, 17:23 UTC

1 34963U 93036AES 26254.72487986  .00003025  00000-0  72839-3 0  9998
2 34963  74.1670 252.3784 0040051   1.4252 358.7017 14.53219742907642

AllMySatでCOSMOS 2251 DEBをリアルタイム追跡

Download on the App Store